EHI
0 0 0 0 0 0 0 0 0 0 0 0 0 0 0 0 0 0 0 0 0 0 0 0 0 0 0 0 0 0 0 0 0 0 0 0 0 0 0 0 0 0 0
0 0 0 0 0 0 0 0 0 0 0 0 0 0 0 0 0 0 0 0 0 0 0 0 0 0 0 0 0 0 0 0 0 0 0 0 0 0 0 0 0 0 0
0 0 0 0 0 0 0 0 0 0 0 0 0 0 0 0 0 0 0 0 0 0 0 0 0 0 0 0 0 0 0 0 0 0 0 0 0 0 0 0 0 0 0
0 0 0 0 0 0 0 0 0 0 0 0 0 0 0 0 0 0 0 0 0 0 0 0 0 0 0 0 0 0 0 0 0 0 0 0 0 0 0 0 0 0 0
0 0 0 0 0 0 0 0 0 0 0 0 0 0 0 0 0 0 0 0 0 0 0 0 0 0 0 0 0 0 0 0 0 0 0 0 0 0 0 0 0 0 0
0 0 0 0 0 0 0 0 0 0 0 0 0 0 0 0 0 0 0 0 0 0 0 0 0 0 0 0 0 0 0 0 0 0 0 0 0 0 0 0 0 0 0
0 0 0 0 0 0 0 0 0 0 0 0 0 0 0 0 0 0 0 0 0 0 0 0 0 0 0 0 0 0 0 0 0 0 0 0 0 0 0 0 0 0 0
0 0 0 0 0 0 0 0 0 0 0 0 0 0 0 0 0 0 0 0 0 0 0 0 0 0 0 0 0 0 0 0 0 0 0 0 0 0 0 0 0 0 0
0 0 0 0 0 0 0 0 0 0 0 0 0 0 0 0 0 0 0 0 0 0 0 0 0 0 0 0 0 0 0 0 1 0 0 0 0 0 0 0 0 0 0
0 0 0 0 0 0 0 0 0 0 0 0 0 0 0 0 0 0 0 0 0 0 0 0 0 0 0 0 0 0 0 0 0 0 0 0 0 0 0 0 0 0 0
0 0 0 0 0 0 0 0 0 0 0 0 0 0 0 0 0 0 0 0 0 0 0 0 0 0 0 0 0 0 0 0 0 0 0 0 0 0 0 0 0 0 0
0 0 0 0 0 0 0 0 0 0 0 0 0 0 0 0 0 0 0 0 0 0 0 0 0 0 0 0 0 0 0 0 0 0 0 0 0 0 0 0 0 0 0
1 2 1 1 0 0 0 0 0 0 0 0 0 0 0 0 0 0 0 0 0 0 0 0 0 0 0 0 0 0 0 0 0 0 0 0 0 0 0 0 0 0 0
3 3 3 2 1 1 1 0 0 0 0 0 0 0 0 0 0 0 0 0 0 0 0 0 0 0 0 0 0 0 0 0 0 0 0 0 0 0 0 0 0 0 0
3 3 3 3 3 2 2 1 0 0 0 0 0 0 0 0 0 0 0 0 0 0 0 0 0 0 0 0 0 0 0 0 0 0 0 0 0 0 0 0 0 0 0
3 3 3 3 3 3 3 2 1 0 0 0 0 0 0 0 0 0 0 0 0 0 0 0 0 0 0 0 0 0 0 0 0 0 0 0 0 0 0 0 0 0 0
3 3 3 3 3 3 3 2 1 0 0 0 0 0 0 0 0 0 0 0 0 0 0 0 0 0 0 0 0 0 0 0 0 0 0 0 0 0 0 0 0 0 0
3 3 3 3 3 3 3 3 1 0 0 0 0 0 0 0 0 0 0 0 0 0 0 0 0 0 0 0 0 0 0 0 0 0 0 0 0 0 0 0 0 0 0
3 3 3 3 3 3 3 3 2 1 0 0 0 0 0 0 0 0 0 0 0 0 0 0 0 0 0 0 0 0 0 0 0 0 0 0 0 0 0 0 0 0 0
3 3 3 3 3 3 3 3 3 2 0 0 0 0 0 0 0 0 0 0 0 0 0 0 0 0 0 0 0 0 0 0 0 0 0 0 0 0 0 0 0 0 0
3 3 3 3 3 2 2 2 2 1 0 0 0 0 0 0 0 0 0 0 0 0 0 0 0 0 0 0 0 0 0 0 0 0 0 0 0 0 0 0 0 0 0
3 3 3 2 1 1 1 0 0 0 0 0 0 0 0 0 0 0 0 0 0 0 0 0 0 0 0 0 0 0 0 0 0 0 0 0 0 0 0 0 0 0 0
2 2 1 1 0 0 0 0 0 0 0 0 0 0 0 0 0 0 0 0 0 0 0 0 0 0 0 0 0 0 0 0 0 0 0 0 0 0 0 0 0 0 0
1 1 1 0 0 0 0 0 0 0 0 0 0 0 0 0 0 0 0 0 0 0 0 0 0 0 0 0 0 0 0 0 0 0 0 0 0 0 0 0 0 0 0
0 0 0 0 0 0 0 0 0 0 0 0 0 0 0 0 0 0 0 0 0 0 0 0 0 0 0 0 0 0 0 0 0 0 0 0 0 0 0 0 0 0 0
0 0 0 0 0 0 0 0 0 0 0 0 0 0 0 0 0 0 0 0 0 0 0 0 0 0 0 0 0 0 0 0 0 0 0 0 0 0 0 0 0 0 0
Wind_Speed
3 2 2 2 2 2 2 2 2 2 2 3 3 4 4 3 3 2 1 5 5 5 6 6 6 5 5 5 4 4 4 4 4 4 5 5 6 6 6 6 6 5 5
3 3 2 2 1 2 2 2 2 2 2 2 2 3 3 3 3 3 2 2 3 4 5 5 5 5 5 5 5 5 5 4 4 4 5 5 5 5 5 5 6 5 4
4 3 2 2 1 2 2 2 2 2 2 2 2 2 2 2 2 2 2 1 1 2 4 4 4 4 4 4 4 5 5 4 4 4 5 5 5 5 5 5 5 6 5
4 3 3 2 2 2 2 2 2 2 2 1 1 1 1 1 2 2 2 1 1 1 2 3 3 3 4 4 4 4 4 4 4 4 5 5 5 5 5 5 5 5 5
5 4 3 2 3 2 2 2 2 2 2 2 2 1 1 1 1 1 2 2 1 1 0 2 3 3 3 4 4 4 4 4 4 4 4 5 5 5 5 5 4 5 5
5 4 3 3 3 3 2 2 3 2 2 2 2 2 2 1 0 1 1 1 1 2 1 1 0 1 2 2 3 3 4 4 4 4 4 4 4 4 4 4 4 4 5
6 5 3 4 4 3 3 4 3 3 2 2 3 2 2 2 1 0 1 1 2 2 2 2 1 0 1 1 2 3 4 4 3 3 3 4 4 3 4 4 4 4 5
6 6 5 4 4 3 4 3 3 2 2 1 3 2 1 2 2 1 0 1 2 1 2 2 2 2 1 1 1 3 3 3 3 3 3 3 3 3 4 3 3 3 4
6 5 6 5 5 4 4 4 4 4 3 1 1 3 3 2 1 1 1 1 1 1 2 2 3 2 2 2 2 2 3 3 3 4 4 4 3 3 4 4 4 4 4
5 6 6 6 5 4 4 4 4 3 4 3 1 1 1 3 2 0 1 1 1 2 2 2 2 3 3 2 2 3 4 3 3 4 4 4 4 4 4 5 5 5 5
5 5 6 5 5 4 4 4 4 3 3 3 3 2 2 2 1 2 1 1 1 1 2 2 2 2 3 3 3 4 5 4 4 4 4 4 4 4 5 5 6 7 7
3 5 5 5 5 4 5 4 4 4 3 3 3 3 3 3 3 2 2 1 1 1 1 2 2 3 3 4 5 6 6 6 5 5 4 4 5 5 6 7 7 8 8
4 6 6 5 5 5 5 4 4 4 4 4 4 2 2 2 3 3 3 2 1 1 2 1 2 3 3 3 4 6 6 6 6 6 5 5 5 6 6 7 7 8 8
6 6 6 6 6 6 5 5 4 4 3 4 4 3 2 2 3 3 3 4 2 1 1 3 1 2 3 3 4 5 4 6 6 6 6 6 6 6 6 6 7 7 7
6 7 7 7 6 6 6 5 4 4 4 3 4 4 2 2 2 2 2 3 4 2 3 3 2 2 2 3 4 3 4 5 6 7 7 7 7 7 7 7 7 8 8
7 8 8 7 7 6 6 5 4 4 5 3 3 4 3 2 2 2 2 2 2 3 3 2 2 2 2 2 3 3 4 5 6 7 7 8 8 8 8 9 9 9 9
8 9 8 8 8 7 6 6 5 6 6 4 4 4 4 3 2 2 2 2 2 3 3 2 1 2 2 2 1 1 2 3 4 6 8 8 8 9 9 9 9 9 9
8 9 8 8 8 8 7 7 7 6 6 6 5 5 4 3 3 2 2 3 2 3 3 3 1 1 2 2 2 2 2 3 3 6 7 8 8 8 9 9 9 10 10
8 8 9 9 9 9 8 8 7 7 7 6 6 6 5 5 4 3 3 3 2 2 2 2 2 1 1 1 1 2 2 2 3 4 5 7 8 8 9 9 10 10 10
9 9 10 10 9 9 9 8 7 7 6 6 6 6 6 7 6 5 4 4 3 3 2 2 2 1 1 1 1 2 2 2 3 3 4 4 5 7 8 9 9 10 10
10 9 9 9 8 8 8 9 8 8 7 6 5 6 6 8 8 7 5 5 4 3 3 2 2 2 2 2 2 2 3 3 3 3 3 3 3 4 5 6 8 9 10
8 9 10 10 10 8 11 13 10 8 7 7 6 6 6 7 8 10 9 8 8 6 5 4 3 4 4 4 2 2 2 2 3 1 2 4 3 5 5 5 8 10 10
8 9 9 9 10 10 12 14 13 8 8 7 7 6 5 5 6 5 7 8 8 9 9 6 6 6 5 5 3 3 4 4 5 2 2 4 3 5 5 6 9 11 11
8 9 9 9 8 9 12 13 13 9 7 7 7 7 7 6 6 6 5 5 5 6 7 7 6 7 6 4 5 4 3 4 4 3 3 4 4 5 5 5 8 10 10
8 8 8 9 9 8 12 12 11 6 6 6 6 7 7 7 8 8 6 5 5 5 6 8 8 7 6 5 4 3 3 3 4 3 3 4 4 4 4 5 6 8 9
8 8 7 8 9 8 9 11 11 5 5 5 4 5 7 8 7 8 7 6 6 6 4 3 4 4 4 4 6 6 5 4 4 4 2 3 3 3 5 3 3 4 5
Wind_Direction
142 133 121 105 102 99 101 100 98 101 101 109 130 141 145 139 137 132 143 167 165 167 169 169 169 165 161 157 157 156 150 150 150 152 149 151 149 153 150 152 152 152 154
149 145 138 128 124 121 116 116 117 113 108 115 124 136 142 134 139 140 135 153 171 179 186 184 183 180 178 177 175 173 169 169 167 165 167 164 160 161 163 163 164 165 164
159 155 151 152 151 135 125 102 87 80 97 110 113 123 137 148 149 148 144 131 161 199 197 195 192 193 192 187 184 177 172 172 175 179 179 177 173 171 172 179 182 182 183
164 157 159 166 152 136 125 118 106 93 91 106 109 103 119 142 157 159 155 150 146 192 215 209 200 197 196 195 189 188 187 185 187 190 189 189 191 187 188 195 198 196 198
166 158 165 162 148 137 136 144 113 118 121 121 120 80 69 89 142 168 178 180 176 178 198 245 224 215 211 204 197 194 194 194 195 197 197 200 201 199 198 204 208 206 209
166 158 162 160 152 140 137 130 120 100 110 126 108 78 46 47 95 200 216 199 199 200 192 213 242 255 234 208 202 213 213 211 207 208 210 207 203 199 204 207 210 215 220
166 162 166 158 158 158 159 146 125 109 95 110 95 63 28 28 52 230 231 216 220 211 194 197 186 193 269 250 222 225 225 214 208 210 215 212 208 203 207 214 218 221 227
171 173 166 166 165 152 147 151 134 122 108 118 119 107 55 358 355 6 269 232 231 208 220 216 197 193 202 212 245 236 228 214 205 201 203 212 210 204 204 209 216 224 233
178 172 170 166 167 162 166 168 154 145 144 123 116 140 147 203 279 332 324 271 230 217 232 227 214 210 206 207 225 244 244 231 220 214 207 205 203 204 204 215 224 228 235
179 175 170 170 167 167 168 174 164 151 143 149 127 94 128 152 150 217 323 323 266 235 237 236 221 210 208 213 222 229 238 231 229 224 217 212 214 220 224 232 241 242 242
180 178 170 166 167 170 173 169 160 156 153 156 157 145 119 85 104 145 216 295 316 279 249 235 227 217 212 214 223 229 233 230 227 228 227 226 231 237 244 250 257 260 260
176 180 173 170 171 170 171 173 169 165 164 155 156 157 157 159 173 161 177 218 252 295 287 247 234 229 222 221 232 229 229 228 223 223 228 238 248 254 258 261 263 266 267
186 191 181 176 175 175 171 165 165 167 168 164 169 174 173 175 158 154 152 166 216 295 306 269 242 235 231 223 234 234 230 227 226 227 234 244 253 260 262 265 268 271 274
190 183 180 180 178 174 171 165 164 171 169 171 176 170 169 178 170 169 162 152 155 290 293 275 280 236 236 230 234 232 237 233 232 235 240 247 253 258 260 264 267 269 271
183 179 180 181 179 173 169 165 169 171 167 175 177 174 172 177 176 176 165 163 160 188 245 260 262 259 237 233 234 226 233 239 240 242 247 252 257 259 260 261 263 264 264
178 175 180 181 178 174 171 168 167 169 167 174 172 167 170 167 160 161 165 166 166 170 212 242 250 277 270 250 223 223 235 245 248 251 254 257 260 262 263 263 263 264 264
180 181 182 180 179 177 174 173 177 172 174 177 176 177 182 166 163 161 153 158 165 162 192 246 254 273 261 263 265 242 242 244 254 256 258 258 259 262 263 263 264 265 264
187 185 181 180 183 181 178 180 184 182 181 183 185 180 187 176 171 170 168 174 179 181 182 214 239 254 252 258 260 265 262 256 258 264 260 259 261 263 263 261 262 263 263
188 185 182 185 187 183 183 187 185 184 189 191 188 190 193 180 188 188 187 187 187 182 179 193 227 247 269 286 276 276 277 281 274 267 259 257 259 262 261 262 263 264 263
188 188 189 190 188 183 184 187 185 186 192 198 197 199 197 194 198 195 196 196 186 180 180 195 223 242 254 272 252 259 279 275 283 285 277 271 266 267 266 265 266 267 265
194 191 188 190 188 186 189 186 188 190 193 200 204 207 209 208 206 201 199 195 186 188 193 206 223 226 234 228 232 228 254 283 275 258 274 270 270 272 273 268 267 266 267
194 189 191 192 193 199 194 188 187 191 194 199 207 214 219 218 218 216 216 205 192 194 204 206 218 227 239 232 226 224 240 270 281 241 253 276 263 272 274 269 266 268 270
192 192 195 195 199 201 192 190 191 188 196 204 208 211 221 221 212 215 220 218 217 219 210 204 222 231 234 226 211 226 226 237 251 262 248 275 264 271 274 274 272 274 274
194 197 195 196 197 201 195 195 194 194 202 208 211 212 214 218 213 209 213 219 225 230 225 220 227 235 236 225 211 221 229 244 257 250 218 262 271 271 280 278 274 272 273
195 195 191 192 197 203 196 194 187 190 205 217 219 217 215 220 219 204 202 218 237 250 244 230 230 240 243 232 208 200 214 235 268 261 200 238 270 283 281 278 278 276 278
195 191 192 194 196 201 192 189 183 188 202 216 221 220 219 221 218 203 203 212 233 247 245 239 235 249 248 241 215 212 222 235 257 272 218 226 265 287 290 273 281 294 292